FW5486 Weather Reports


Display with metric or nautical units.
time (UTC)temp
F
wind
direction
speed
MPH
gust
MPH
rain 1hr
in
rain 24hr
in
rain mn
in
humidity
%
barometer
mb
20260507042912 78 216 1.0 2.0 0.00 0.00 0.00 88 1012.6
20260507042640 78 216 1.0 3.0 0.00 0.00 0.00 88 1012.5
20260507041904 78 216 1.0 3.0 0.00 0.00 0.00 88 1012.6
20260507041403 78 220 1.0 4.0 0.00 0.00 0.00 88 1012.7
20260507040902 78 220 1.0 4.0 0.00 0.00 0.00 88 1012.6
20260507040631 79 227 1.0 4.0 0.00 0.00 0.00 88 1012.6
20260507040129 79 227 1.0 4.0 0.00 0.00 0.00 88 1012.7
20260507035356 79 226 1.0 5.0 0.00 0.00 0.00 88 1012.7
20260507034857 79 230 1.0 5.0 0.00 0.00 0.00 88 1012.7
20260507034357 79 216 1.0 5.0 0.00 0.00 0.00 88 1012.7
20260507033855 79 212 2.0 5.0 0.00 0.00 0.00 88 1012.7
20260507033357 79 227 2.0 3.0 0.00 0.00 0.00 88 1012.7
20260507033121 79 228 2.0 3.0 0.00 0.00 0.00 87 1012.7
20260507032349 79 198 2.0 3.0 0.00 0.00 0.00 87 1012.6
20260507031851 79 235 1.0 3.0 0.00 0.00 0.00 87 1012.5
20260507031351 79 235 1.0 3.0 0.00 0.00 0.00 87 1012.5
20260507030850 79 223 1.0 3.0 0.00 0.00 0.00 87 1012.4
20260507030350 79 141 1.0 5.0 0.00 0.00 0.00 87 1012.2
20260507025844 79 207 2.0 5.0 0.00 0.00 0.00 87 1012.2
20260507025611 79 221 1.0 4.0 0.00 0.00 0.00 87 1012.1
20260507025111 79 227 1.0 4.0 0.00 0.00 0.00 87 1012.1
20260507024336 79 215 2.0 11.0 0.00 0.00 0.00 87 1012.1
20260507023836 79 219 2.0 11.0 0.00 0.00 0.00 87 1012.0
20260507023331 79 234 1.0 4.0 0.00 0.00 0.00 87 1011.9
20260507022830 79 226 2.0 9.0 0.00 0.00 0.00 87 1011.7
20260507022330 79 198 2.0 9.0 0.00 0.00 0.00 86 1011.8
20260507022101 79 202 1.0 9.0 0.00 0.00 0.00 86 1011.7
20260507021331 79 236 2.0 9.0 0.00 0.00 0.00 86 1011.6
20260507021102 79 207 2.0 10.0 0.00 0.00 0.00 86 1011.5
20260507020327 79 126 1.0 10.0 0.00 0.00 0.00 86 1011.5
20260507015830 79 207 1.0 6.0 0.00 0.00 0.00 86 1011.3
20260507015330 79 175 2.0 8.0 0.00 0.00 0.00 86 1011.3
20260507014826 79 168 2.0 9.0 0.00 0.00 0.00 86 1011.3
20260507014326 79 196 2.0 9.0 0.00 0.00 0.00 86 1011.2
20260507013826 80 230 2.0 6.0 0.00 0.00 0.00 86 1011.2
20260507013319 80 205 2.0 6.0 0.00 0.00 0.00 86 1011.1
20260507012817 80 219 1.0 6.0 0.00 0.00 0.00 86 1011.0
20260507012316 80 48 2.0 7.0 0.00 0.00 0.00 86 1010.9
20260507011817 80 172 3.0 8.0 0.00 0.00 0.00 86 1010.9
20260507011316 80 176 2.0 8.0 0.00 0.00 0.00 85 1010.9
20260507010819 80 151 2.0 10.0 0.00 0.00 0.00 85 1010.9
20260507010313 80 237 2.0 10.0 0.00 0.00 0.00 85 1010.9
20260507005814 80 142 1.0 7.0 0.00 0.00 0.00 85 1010.9
20260507005316 80 160 2.0 6.0 0.00 0.00 0.00 85 1010.9
20260507004814 80 214 1.0 8.0 0.00 0.00 0.00 85 1011.0
20260507004318 80 198 3.0 8.0 0.00 0.00 0.00 85 1010.9
20260507004313 80 211 1.0 8.0 0.00 0.00 0.00 85 1010.9
20260507003315 80 229 3.0 9.0 0.00 0.00 0.00 84 1010.7
20260507003046 80 229 2.0 9.0 0.00 0.00 0.00 84 1010.7
20260507002540 80 186 2.0 9.0 0.00 0.00 0.00 84 1010.7
20260507001809 80 175 3.0 9.0 0.00 0.00 0.00 84 1010.7
20260507001539 80 225 4.0 12.0 0.00 0.00 0.00 84 1010.5
20260507000811 80 165 4.0 13.0 0.00 0.00 0.00 84 1010.4
20260507000311 80 161 3.0 13.0 0.00 0.00 0.00 84 1010.7
20260506235810 80 96 2.0 8.0 0.00 0.00 0.00 84 1010.8
20260506235307 80 236 2.0 8.0 0.00 0.00 0.00 84 1010.7
20260506234806 81 156 3.0 11.0 0.00 0.00 0.00 84 1010.7
20260506234318 81 168 3.0 11.0 0.00 0.00 0.00 84 1010.6
20260506233805 81 167 2.0 10.0 0.00 0.00 0.00 84 1010.7
20260506233307 81 181 2.0 10.0 0.00 0.00 0.00 84 1010.7
20260506232806 81 175 2.0 11.0 0.00 0.00 0.00 84 1010.7
20260506232308 81 178 3.0 11.0 0.00 0.00 0.00 84 1010.7
20260506232039 81 202 3.0 10.0 0.00 0.00 0.00 84 1010.7
20260506231307 81 157 2.0 7.0 0.00 0.00 0.00 84 1010.7
20260506231157 81 115 2.0 10.0 0.00 0.00 0.00 83 1010.7
20260506231044 81 226 2.0 10.0 0.00 0.00 0.00 83 1010.7
20260506225802 81 298 2.0 8.0 0.00 0.00 0.00 83 1010.6
20260506225300 81 218 2.0 9.0 0.00 0.00 0.00 83 1010.6
20260506224758 81 244 2.0 9.0 0.00 0.00 0.00 83 1010.6
20260506224258 81 183 1.0 6.0 0.00 0.00 0.00 83 1010.6
20260506223752 81 211 2.0 8.0 0.00 0.00 0.00 84 1010.6
20260506223252 81 155 2.0 10.0 0.00 0.00 0.00 84 1010.6
20260506222753 80 133 1.0 10.0 0.00 0.00 0.00 85 1010.7
20260506222252 80 187 1.0 6.0 0.00 0.00 0.00 85 1010.7
20260506221750 80 200 1.0 6.0 0.00 0.00 0.00 85 1010.8
20260506221256 80 165 1.0 6.0 0.00 0.00 0.00 86 1010.8
20260506221247 80 200 1.0 6.0 0.00 0.00 0.00 85 1010.8
20260506220242 81 267 2.0 6.0 0.00 0.00 0.00 84 1010.8
20260506220011 81 199 3.0 9.0 0.00 0.00 0.00 83 1010.8
20260506215508 81 180 3.0 9.0 0.00 0.00 0.00 82 1010.8
20260506214738 82 153 2.0 9.0 0.00 0.00 0.00 81 1010.8
20260506214234 82 172 2.0 9.0 0.00 0.00 0.00 81 1010.7
20260506214006 82 182 2.0 6.0 0.00 0.00 0.00 80 1010.9
20260506213234 82 192 1.0 9.0 0.00 0.00 0.00 80 1010.9
20260506212734 82 138 1.0 9.0 0.00 0.00 0.00 79 1011.0
20260506212232 83 248 2.0 10.0 0.00 0.00 0.00 79 1011.1
20260506212003 83 203 1.0 10.0 0.00 0.00 0.00 79 1011.0
20260506211851 83 174 1.0 7.0 0.00 0.00 0.00 79 1011.1
20260506210730 83 209 2.0 7.0 0.00 0.00 0.00 78 1011.2
20260506210231 83 216 2.0 7.0 0.00 0.00 0.00 78 1011.2
20260506205733 83 169 2.0 5.0 0.00 0.00 0.00 78 1011.2
20260506205727 83 204 2.0 6.0 0.00 0.00 0.00 78 1011.2
20260506204725 84 210 2.0 10.0 0.00 0.00 0.00 78 1011.2
20260506204223 84 217 3.0 10.0 0.00 0.00 0.00 77 1011.1
20260506203722 84 221 3.0 12.0 0.00 0.00 0.00 76 1011.2
20260506203218 84 172 4.0 12.0 0.00 0.00 0.00 75 1011.2
20260506202721 84 169 2.0 12.0 0.00 0.00 0.00 76 1011.1
20260506202450 84 178 2.0 11.0 0.00 0.00 0.00 77 1011.2
20260506201720 84 160 3.0 11.0 0.00 0.00 0.00 76 1011.3
20260506201214 84 155 3.0 11.0 0.00 0.00 0.00 75 1011.4
20260506200711 85 168 2.0 12.0 0.00 0.00 0.00 75 1011.5
20260506200210 85 108 3.0 12.0 0.00 0.00 0.00 75 1011.5
20260506195708 85 191 3.0 11.0 0.00 0.00 0.00 74 1011.4
20260506195209 85 226 3.0 14.0 0.00 0.00 0.00 74 1011.4
20260506194705 85 197 3.0 14.0 0.00 0.00 0.00 74 1011.5
20260506194202 84 217 4.0 14.0 0.00 0.00 0.00 75 1011.5
20260506193704 84 178 7.0 14.0 0.00 0.00 0.00 75 1011.6
20260506193204 84 164 5.0 13.0 0.00 0.00 0.00 76 1011.7
20260506192702 84 189 2.0 11.0 0.00 0.00 0.00 75 1011.7
20260506192201 84 169 2.0 11.0 0.00 0.00 0.00 73 1011.9
20260506191657 85 215 2.0 11.0 0.00 0.00 0.00 73 1012.0
20260506191156 85 203 2.0 7.0 0.00 0.00 0.00 74 1012.2
20260506190658 84 234 2.0 5.0 0.00 0.00 0.00 74 1012.2
20260506190154 84 98 2.0 6.0 0.00 0.00 0.00 74 1012.4
20260506185652 84 183 2.0 8.0 0.00 0.00 0.00 73 1012.8
20260506185151 84 228 2.0 8.0 0.00 0.00 0.00 73 1013.0
20260506184644 85 211 2.0 8.0 0.00 0.00 0.00 74 1013.0
20260506184147 85 202 1.0 9.0 0.00 0.00 0.00 74 1013.0
20260506183919 85 200 1.0 9.0 0.00 0.00 0.00 75 1013.1
20260506183145 85 178 2.0 8.0 0.00 0.00 0.00 74 1013.0
20260506182645 85 129 2.0 8.0 0.00 0.00 0.00 74 1013.1
20260506182146 84 203 2.0 10.0 0.00 0.00 0.00 75 1013.2
20260506181639 84 185 3.0 10.0 0.00 0.00 0.00 76 1013.2
20260506181140 84 222 3.0 12.0 0.00 0.00 0.00 74 1013.2
20260506180641 84 214 3.0 12.0 0.00 0.00 0.00 74 1013.3
20260506180139 84 184 3.0 12.0 0.00 0.00 0.00 76 1013.4
20260506175639 84 202 4.0 13.0 0.00 0.00 0.00 75 1013.5
20260506175140 83 171 3.0 13.0 0.00 0.00 0.00 75 1013.6
20260506174638 83 186 2.0 11.0 0.00 0.00 0.00 75 1013.7
20260506174136 83 161 2.0 11.0 0.00 0.00 0.00 75 1013.7
20260506173635 83 177 2.0 8.0 0.00 0.00 0.00 76 1013.7
20260506173134 83 194 2.0 7.0 0.00 0.00 0.00 76 1013.7
20260506172634 83 165 2.0 7.0 0.00 0.00 0.00 75 1013.7
20260506172133 83 209 2.0 6.0 0.00 0.00 0.00 76 1013.7
20260506171631 83 165 2.0 12.0 0.00 0.00 0.00 77 1013.8
20260506171129 82 246 3.0 12.0 0.00 0.00 0.00 76 1013.8
20260506170642 82 188 3.0 8.0 0.00 0.00 0.00 77 1013.9
20260506170129 82 163 2.0 8.0 0.00 0.00 0.00 77 1013.9
20260506165858 82 134 2.0 6.0 0.00 0.00 0.00 79 1013.9
20260506165128 81 129 2.0 8.0 0.00 0.00 0.00 81 1014.0
20260506164635 80 212 2.0 7.0 0.00 0.00 0.00 82 1014.1
20260506164629 81 177 2.0 8.0 0.00 0.00 0.00 80 1014.0
20260506163629 80 160 2.0 7.0 0.00 0.00 0.00 82 1014.0
20260506163129 80 212 1.0 7.0 0.00 0.00 0.00 84 1014.1
20260506162628 80 242 1.0 8.0 0.00 0.00 0.00 83 1014.2
20260506162401 79 171 1.0 8.0 0.00 0.00 0.00 83 1014.2
20260506161625 79 193 2.0 5.0 0.00 0.00 0.00 83 1014.1
20260506161129 79 171 2.0 9.0 0.00 0.00 0.00 83 1014.0
20260506161124 79 219 2.0 9.0 0.00 0.00 0.00 83 1014.0
20260506160356 79 252 1.0 7.0 0.00 0.00 0.00 83 1014.1
20260506155624 79 201 1.0 7.0 0.00 0.00 0.00 84 1014.0
20260506155126 79 225 1.0 5.0 0.00 0.00 0.00 84 1014.0
20260506154621 79 152 1.0 6.0 0.00 0.00 0.00 84 1013.9
20260506154355 78 188 1.0 6.0 0.00 0.00 0.00 84 1013.9
20260506153622 78 200 2.0 9.0 0.00 0.00 0.00 84 1013.7
20260506153120 78 99 2.0 11.0 0.00 0.00 0.00 84 1013.7
20260506152620 78 205 2.0 11.0 0.00 0.00 0.00 85 1013.8
20260506152122 78 210 2.0 6.0 0.00 0.00 0.00 86 1013.6
20260506151621 78 166 2.0 8.0 0.00 0.00 0.00 86 1013.7
20260506151121 78 200 1.0 8.0 0.00 0.00 0.00 86 1013.6
20260506150621 78 221 2.0 9.0 0.00 0.00 0.00 86 1013.6
20260506150351 78 198 2.0 10.0 0.00 0.00 0.00 86 1013.5
20260506145846 78 180 2.0 10.0 0.00 0.00 0.00 86 1013.5
20260506145114 78 155 3.0 10.0 0.00 0.00 0.00 86 1013.6
20260506144614 78 198 2.0 10.0 0.00 0.00 0.00 86 1013.5
20260506144116 78 192 1.0 6.0 0.00 0.00 0.00 86 1013.5
20260506143613 78 166 1.0 7.0 0.00 0.00 0.00 86 1013.6
20260506143113 78 206 1.0 7.0 0.00 0.00 0.00 86 1013.6
20260506142838 78 213 2.0 7.0 0.00 0.00 0.00 86 1013.6
20260506142337 78 169 2.0 8.0 0.00 0.00 0.00 86 1013.5
20260506141606 78 207 1.0 8.0 0.00 0.00 0.00 86 1013.6
20260506141106 78 254 2.0 8.0 0.00 0.00 0.00 87 1013.5
20260506140608 78 152 2.0 8.0 0.00 0.00 0.00 87 1013.4
20260506140108 78 134 1.0 5.0 0.00 0.00 0.00 87 1013.3
20260506135602 77 230 1.0 5.0 0.00 0.00 0.00 87 1013.3
20260506135101 77 186 1.0 5.0 0.00 0.00 0.00 88 1013.2
20260506134601 77 161 1.0 5.0 0.00 0.00 0.00 88 1013.3
20260506134101 77 207 1.0 2.0 0.00 0.00 0.00 88 1013.3
20260506133602 77 177 1.0 3.0 0.00 0.00 0.00 88 1013.2
20260506133330 77 243 1.0 5.0 0.00 0.00 0.00 88 1013.1
20260506132556 77 177 2.0 5.0 0.00 0.00 0.00 88 1013.2
20260506132053 77 201 1.0 5.0 0.00 0.00 0.00 88 1013.2
20260506131550 77 184 1.0 6.0 0.00 0.00 0.00 88 1013.1
20260506131050 77 158 1.0 6.0 0.00 0.00 0.00 88 1013.1
20260506130819 76 142 1.0 5.0 0.00 0.00 0.00 88 1012.9
20260506130317 76 207 2.0 8.0 0.00 0.00 0.00 88 1012.9
20260506125544 76 156 2.0 8.0 0.00 0.00 0.00 89 1012.8
20260506125044 76 138 2.0 6.0 0.00 0.00 0.00 89 1012.7
20260506124545 76 195 2.0 6.0 0.00 0.00 0.00 89 1012.7
20260506124319 76 204 2.0 9.0 0.00 0.00 0.00 89 1012.6
20260506124043 76 298 2.0 5.0 0.00 0.00 0.00 89 1012.7
20260506123042 76 195 2.0 9.0 0.00 0.00 0.00 89 1012.6
20260506122537 76 246 1.0 7.0 0.00 0.00 0.00 89 1012.6
20260506122037 76 169 1.0 5.0 0.00 0.00 0.00 90 1012.5
20260506121537 76 205 2.0 8.0 0.00 0.00 0.00 90 1012.5
20260506121038 76 158 2.0 8.0 0.00 0.00 0.00 90 1012.6
20260506120538 76 211 1.0 6.0 0.00 0.00 0.00 90 1012.6
20260506120033 75 189 1.0 6.0 0.00 0.00 0.00 90 1012.4
20260506115803 75 198 1.0 5.0 0.00 0.00 0.00 90 1012.3
20260506115033 75 139 1.0 5.0 0.00 0.00 0.00 91 1012.2
20260506114534 75 167 1.0 4.0 0.00 0.00 0.00 91 1012.3
20260506114031 75 147 1.0 7.0 0.00 0.00 0.00 91 1012.2
20260506113531 75 187 1.0 7.0 0.00 0.00 0.00 91 1012.2
20260506113255 75 122 2.0 9.0 0.00 0.00 0.00 91 1012.0
20260506112523 75 156 2.0 9.0 0.00 0.00 0.00 91 1012.0
20260506112021 75 181 1.0 6.0 0.00 0.00 0.00 91 1011.9
20260506111519 75 170 1.0 7.0 0.00 0.00 0.00 91 1011.8
20260506111019 75 155 1.0 7.0 0.00 0.00 0.00 91 1011.9
20260506110529 75 143 1.0 6.0 0.00 0.00 0.00 91 1011.7
20260506110246 75 173 2.0 6.0 0.00 0.00 0.00 91 1011.8
20260506105514 75 148 2.0 7.0 0.00 0.00 0.00 91 1011.8
20260506105013 74 180 2.0 8.0 0.00 0.00 0.00 90 1011.8
20260506104514 74 153 2.0 8.0 0.00 0.00 0.00 90 1011.8
20260506104245 74 170 3.0 7.0 0.00 0.00 0.00 90 1011.9
20260506103509 74 140 2.0 7.0 0.00 0.00 0.00 90 1011.9
20260506103007 74 138 2.0 7.0 0.00 0.00 0.00 90 1011.9
20260506102507 74 157 2.0 7.0 0.00 0.00 0.00 90 1011.9
20260506102007 74 155 2.0 6.0 0.00 0.00 0.00 90 1011.9
20260506101504 74 153 2.0 6.0 0.00 0.00 0.00 90 1011.9
20260506101005 74 163 1.0 5.0 0.00 0.00 0.00 90 1011.8
20260506100731 74 140 1.0 3.0 0.00 0.00 0.00 90 1011.9
20260506100618 74 144 1.0 2.0 0.00 0.00 0.00 90 1012.0
20260506095455 74 144 0.0 2.0 0.00 0.00 0.00 90 1012.0
20260506094953 74 146 1.0 3.0 0.00 0.00 0.00 90 1012.0
20260506094452 74 139 1.0 3.0 0.00 0.00 0.00 90 1012.1
20260506094224 74 159 1.0 4.0 0.00 0.00 0.00 90 1012.1
20260506093448 74 164 1.0 4.0 0.00 0.00 0.00 90 1012.0
20260506092951 74 159 1.0 4.0 0.00 0.00 0.00 90 1012.1
20260506092449 74 135 1.0 4.0 0.00 0.00 0.00 90 1012.0
20260506091946 74 143 1.0 4.0 0.00 0.00 0.00 90 1012.0
20260506091716 74 196 1.0 4.0 0.00 0.00 0.00 90 1012.1
20260506090938 74 156 1.0 6.0 0.00 0.00 0.00 90 1012.1
20260506090438 74 147 1.0 6.0 0.00 0.00 0.00 90 1012.1
20260506085938 74 96 1.0 4.0 0.00 0.00 0.00 90 1012.0
20260506085435 74 96 2.0 6.0 0.00 0.00 0.00 90 1012.1
20260506085209 74 144 3.0 7.0 0.00 0.00 0.00 90 1012.0
20260506084434 74 132 2.0 7.0 0.00 0.00 0.00 90 1012.1
20260506083933 74 140 2.0 6.0 0.00 0.00 0.00 89 1012.1
20260506083433 74 113 2.0 6.0 0.00 0.00 0.00 89 1012.1
20260506082933 74 146 2.0 6.0 0.00 0.00 0.00 89 1012.3
20260506082433 74 165 3.0 6.0 0.00 0.00 0.00 89 1012.3
20260506081935 74 170 2.0 5.0 0.00 0.00 0.00 89 1012.2
20260506081702 74 108 2.0 7.0 0.00 0.00 0.00 89 1012.2
20260506080932 74 153 2.0 7.0 0.00 0.00 0.00 89 1012.2
20260506080430 74 157 2.0 8.0 0.00 0.00 0.00 89 1012.2
20260506072925 74 153 2.0 7.0 0.00 0.00 0.00 88 1012.4
20260506072426 74 176 2.0 7.0 0.00 0.00 0.00 88 1012.4
20260506071924 74 161 2.0 7.0 0.00 0.00 0.00 88 1012.4
20260506071422 74 185 2.0 6.0 0.00 0.00 0.00 88 1012.5
20260506070921 74 223 1.0 6.0 0.00 0.00 0.00 88 1012.4
20260506070422 74 129 1.0 7.0 0.00 0.00 0.00 88 1012.3
20260506062413 74 150 1.0 5.0 0.00 0.00 0.00 87 1012.2
20260506061908 74 157 1.0 8.0 0.00 0.00 0.00 87 1012.4
20260506061636 74 188 1.0 9.0 0.00 0.00 0.00 87 1012.4
20260506060904 74 184 2.0 9.0 0.00 0.00 0.00 87 1012.4
20260506060406 74 150 3.0 9.0 0.00 0.00 0.00 87 1012.4
20260506051354 74 157 3.0 10.0 0.00 0.00 0.00 86 1012.7
20260506051126 74 165 2.0 7.0 0.00 0.00 0.00 86 1012.7
20260506050353 75 168 3.0 10.0 0.00 0.00 0.00 86 1012.6
20260506044850 75 215 2.0 9.0 0.00 0.00 0.00 86 1012.5
20260506044352 75 172 3.0 9.0 0.00 0.00 0.00 86 1012.5
20260506043844 75 198 2.0 9.0 0.00 0.00 0.00 86 1012.5
20260506043344 75 148 2.0 9.0 0.00 0.00 0.00 86 1012.6